Regional Weather Roundup
Issued by NWS

Home | Current Version | Previous Version | Graphics & Text | Print | Product List | Glossary On
Versions: 1 2 3 4 5 6 7 8 9 10 11 12 13 14 15 16 17 18 19 20 21 22 23 24 25 26 27 28 29 30 31 32 33 34 35 36 37 38 39 40 41 42 43 44 45 46 47 48
000
ASUS45 KBOI 211810
RWRID
WEATHER ROUNDUP FOR IDAHO
NATIONAL WEATHER SERVICE BOISE ID
1200 PM MDT TUE OCT 21 2014

NOTE: "FAIR" INDICATES FEW OR NO CLOUDS BELOW 12000 FEET
WITH NO SIGNIFICANT WEATHER AND/OR OBSTRUCTIONS TO VISIBILITY

IDZ012-014-211900-
SOUTHWEST IDAHO


CITY           SKY/WX    TMP DP  RH WIND       PRES   REMARKS
BOISE          CLOUDY    50  46  86 CALM      30.03R
CALDWELL       CLOUDY    54  39  58 CALM      30.05R
MOUNTAIN HOME  PTSUNNY   51  46  82 W15       30.04R
$$

IDZ016-017-211900-
SOUTHCENTRAL IDAHO


CITY           SKY/WX    TMP DP  RH WIND       PRES   REMARKS
BURLEY         LGT RAIN  51  37  58 SW20G31   30.03S
JEROME         MOSUNNY   52  39  61 SW26G38   30.04R
TWIN FALLS     MOSUNNY   55  35  47 W28G39    30.03R
$$

IDZ019>023-211900-
SOUTHEAST IDAHO


CITY           SKY/WX    TMP DP  RH WIND       PRES   REMARKS
IDAHO FALLS    PTSUNNY   46  39  76 S24G33    30.00R
POCATELLO      PTSUNNY   49  38  65 SW14G22   30.06R
REXBURG        CLOUDY    45  35  68 S16G28    29.99S
$$

IDZ006-010-011-018-031-032-211900-
CENTRAL IDAHO MOUNTAINS


CITY           SKY/WX    TMP DP  RH WIND       PRES   REMARKS
MCCALL         LGT RAIN  40  38  93 S7        29.97R
HAILEY         CLOUDY    45  36  70 S9        30.03R
STANLEY          N/A     38  35  89 SE3       29.98R
SALMON         CLOUDY    45  39  81 N9        29.91R
CHALLIS        CLOUDY    46  33  60 S10       29.92R
$$

IDZ002-004-006-007-026-211900-
NORTHERN IDAHO


CITY           SKY/WX    TMP DP  RH WIND       PRES   REMARKS
LEWISTON       CLOUDY    57  50  77 CALM      29.94R
LOWELL           N/A     51  49  92 CALM      29.98R
COEUR D`ALENE  CLOUDY    52  43  71 W10       29.91R
MULLAN PASS    FOG       35  35 100 VRB6      29.89S VSB<1/4 WCI  30
$$



USA.gov is the U.S. government's official web portal to all federal, state and local government web resources and services.